IRIDIUM 33 DEB, 34146

Orbit data source: Space-Track

IRIDIUM 33 DEB, 34146 is space debris in LEO originally from a launch on Sun, 14 Sep 1997 UTC launched from the Tyuratam Missile And Space Complex (TTMTR). The debris from Iridium 33, an American commercial communications satellite, has been tracked extensively since its accidental collision with the defunct Russian satellite Cosmos 2251 in 2009. This event, occurring at high speed in low Earth orbit (LEO), generated thousands of pieces of space debris, significantly increasing the risk of further collisions. The Iridium 33 debris cloud has impacted space traffic management and orbital debris mitigation strategies, making it a subject of ongoing study in space situational awareness.

Loading next visibility...
Identifier
34146, 1997-051DZ
Orbit
LEO
Country
Flag of USUS
Related business
Manufacturer
Unknown
Mission
Spacecraft
Bus & Motor
Unknown
Mass
Unknown
Launch date (UTC)
1997-09-14 (28 years ago)
Launch vehicle
Unknown
Launch site
Tyuratam Missile And Space Complex (TTMTR)
Object type
Payload
Rocket body
Debris
Shape & HBR
Unknown shape, 0.1 m
Radar Cross Section
Small (<0.1 m²)

Expand to show TLE details & history
Last TLE update: 20 hours ago

TLE from 20 hours ago
0 IRIDIUM 33 DEB
1 34146U 97051DZ  25350.00378132  .00002584  00000-0  67263-3 0  9995
2 34146  86.2834 348.3589 0025809 210.1704 203.4774 14.49072903881542
Epoch: 2025-12-16T00:05Z
TLE epoch observation values (Epoch: 2025-12-16T00:05:26.706Z)
Latitude
53.46692°
Longitude
-92.89337°
Altitude
754.365 km
Speed
7.474 km/s
True Right ascension
23h 33m 26s
True Declination
53° 18' 08"
Sunlit
Object was in daylight at epoch
Visualization orbit readout
Latitude
Unknown
Longitude
Unknown
Altitude
Unknown
Speed
Unknown
Apparent Right ascension
Unknown
Apparent Declination
Unknown
Sunlit
N/A
Visualization observer readout
Local Sidereal Time
19:12:58
Azimuth
Unknown
Elevation
Unknown
Doppler factor
Unknown
Orbital elements
Apogee altitude
743.958 km
Perigee altitude
707.29 km
Semi-major axis
7,103.761 km
Eccentricity
0.00258
Inclination
86.2834°
RAAN
348.3589°
Arg. of periapsis
210.1704°
True anomaly
203.35992°
Mean anomaly
203.4774°
Eccentric anomaly
203.41863°
Mean motion
3.62502 °/min
Orbital period
99.31 mins
BSTAR
0.00067263
Loading maneuver chart data...
Computing Atmospheric mass density...

Documentation

Showing up to 5 results
|